Location: *
(51.5000°N, 0.1100°W)
Time: 17:43:28
(UTC+00:00)

Nimbus 7 Rocket - Pass Details

Date: 25 May 2024
Orbit: 922 x 964 km, 99.4° (Epoch: 16 June)

Event Time Altitude Azimuth Distance (km) Brightness Sun altitude
Rises 00:55:22 0° 16° (NNE) 3,624 9.3 -16.4°
Reaches altitude 10° 00:57:48 10° 17° (NNE) 2,681 8.2 -16.3°
Maximum altitude 01:03:50 85° 107° (ESE) 965 4.4 -16.0°
Enters shadow 01:07:42 24° 195° (SSW) 1,878 5.4 -15.9°
